Time,TemperatureF,DewpointF,PressureIn,WindDirection,WindDirectionDegrees,WindSpeedMPH,WindSpeedGustMPH,Humidity,HourlyPrecipIn,Conditions,Clouds,dailyrainin,SoftwareType,DateUTC
2013-02-16 00:05:00,34.4,33.0,29.94,WNW,295,0.0,0.0,95,0.00,,,0.00,weatherlink.com 1.10,2013-02-16 05:05:00,
2013-02-16 00:20:00,33.8,32.0,29.94,WNW,295,0.0,0.0,94,0.00,,,0.00,weatherlink.com 1.10,2013-02-16 05:20:00,
2013-02-16 00:36:00,33.4,32.0,29.94,WNW,295,0.0,0.0,95,0.00,,,0.00,weatherlink.com 1.10,2013-02-16 05:36:00,
2013-02-16 00:50:00,32.8,32.0,29.93,WNW,295,0.0,0.0,95,0.00,,,0.00,weatherlink.com 1.10,2013-02-16 05:50:00,
2013-02-16 01:05:00,32.2,31.0,29.93,WNW,295,0.0,0.0,95,0.00,,,0.00,weatherlink.com 1.10,2013-02-16 06:05:00,
2013-02-16 01:21:00,31.5,30.0,29.93,WNW,295,0.0,0.0,94,0.00,,,0.00,weatherlink.com 1.10,2013-02-16 06:21:00,
2013-02-16 01:36:00,31.0,30.0,29.93,WNW,295,0.0,0.0,95,0.00,,,0.00,weatherlink.com 1.10,2013-02-16 06:36:00,
2013-02-16 01:51:00,30.6,29.0,29.93,WNW,295,0.0,0.0,95,0.00,,,0.00,weatherlink.com 1.10,2013-02-16 06:51:00,
2013-02-16 02:06:00,30.6,30.0,29.93,WNW,295,0.0,0.0,96,0.00,,,0.00,weatherlink.com 1.10,2013-02-16 07:06:00,
2013-02-16 02:21:00,31.1,30.0,29.92,WNW,295,1.0,2.0,96,0.00,,,0.00,weatherlink.com 1.10,2013-02-16 07:21:00,
2013-02-16 02:36:00,31.5,31.0,29.92,WNW,295,1.0,1.0,97,0.00,,,0.00,weatherlink.com 1.10,2013-02-16 07:36:00,
2013-02-16 02:51:00,31.8,31.0,29.91,WNW,295,0.0,0.0,97,0.00,,,0.00,weatherlink.com 1.10,2013-02-16 07:51:00,
2013-02-16 03:06:00,31.9,31.0,29.91,WNW,295,0.0,2.0,96,0.00,,,0.00,weatherlink.com 1.10,2013-02-16 08:06:00,
2013-02-16 03:21:00,32.1,31.0,29.91,WNW,302,1.0,3.0,97,0.00,,,0.00,weatherlink.com 1.10,2013-02-16 08:21:00,
2013-02-16 03:36:00,32.1,31.0,29.91,WNW,302,0.0,0.0,96,0.00,,,0.00,weatherlink.com 1.10,2013-02-16 08:36:00,
2013-02-16 03:51:00,31.9,31.0,29.91,WNW,289,2.0,4.0,96,0.00,,,0.00,weatherlink.com 1.10,2013-02-16 08:51:00,
2013-02-16 04:06:00,32.0,31.0,29.91,WNW,290,0.0,3.0,94,0.00,,,0.00,weatherlink.com 1.10,2013-02-16 09:06:00,
2013-02-16 04:21:00,32.3,30.0,29.91,West,278,3.0,5.0,92,0.00,,,0.00,weatherlink.com 1.10,2013-02-16 09:21:00,
2013-02-16 04:36:00,32.2,30.0,29.91,WNW,290,2.0,4.0,91,0.00,,,0.00,weatherlink.com 1.10,2013-02-16 09:36:00,
2013-02-16 04:51:00,32.0,30.0,29.91,WNW,286,0.0,4.0,92,0.00,,,0.00,weatherlink.com 1.10,2013-02-16 09:51:00,
2013-02-16 05:06:00,31.6,30.0,29.92,WNW,286,1.0,3.0,92,0.00,,,0.00,weatherlink.com 1.10,2013-02-16 10:06:00,
2013-02-16 05:21:00,31.4,29.0,29.92,WNW,288,1.0,3.0,92,0.00,,,0.00,weatherlink.com 1.10,2013-02-16 10:21:00,
2013-02-16 05:36:00,31.4,29.0,29.91,WNW,290,0.0,2.0,92,0.00,,,0.00,weatherlink.com 1.10,2013-02-16 10:36:00,
2013-02-16 05:51:00,31.2,29.0,29.91,WNW,290,0.0,0.0,92,0.00,,,0.00,weatherlink.com 1.10,2013-02-16 10:51:00,
2013-02-16 06:06:00,31.2,29.0,29.92,WNW,288,0.0,2.0,92,0.00,,,0.00,weatherlink.com 1.10,2013-02-16 11:06:00,
2013-02-16 06:21:00,31.1,29.0,29.91,WNW,288,0.0,0.0,93,0.00,,,0.00,weatherlink.com 1.10,2013-02-16 11:21:00,
2013-02-16 06:37:00,31.1,29.0,29.91,WNW,288,0.0,0.0,93,0.00,,,0.00,weatherlink.com 1.10,2013-02-16 11:37:00,
2013-02-16 06:51:00,30.8,29.0,29.92,WNW,288,0.0,1.0,92,0.00,,,0.00,weatherlink.com 1.10,2013-02-16 11:51:00,
2013-02-16 07:06:00,30.6,29.0,29.93,WNW,288,0.0,0.0,93,0.00,,,0.00,weatherlink.com 1.10,2013-02-16 12:06:00,
2013-02-16 07:21:00,30.5,29.0,29.93,WNW,288,0.0,0.0,93,0.00,,,0.00,weatherlink.com 1.10,2013-02-16 12:21:00,
2013-02-16 07:36:00,30.6,29.0,29.93,WNW,288,0.0,1.0,93,0.00,,,0.00,weatherlink.com 1.10,2013-02-16 12:36:00,
2013-02-16 07:51:00,31.1,29.0,29.93,WNW,293,0.0,2.0,93,0.00,,,0.00,weatherlink.com 1.10,2013-02-16 12:51:00,
2013-02-16 08:06:00,31.9,30.0,29.93,WNW,293,0.0,2.0,92,0.00,,,0.00,weatherlink.com 1.10,2013-02-16 13:06:00,
2013-02-16 08:21:00,32.5,30.0,29.93,WNW,293,0.0,0.0,90,0.00,,,0.00,weatherlink.com 1.10,2013-02-16 13:21:00,
2013-02-16 08:36:00,33.0,30.0,29.92,WNW,284,2.0,3.0,89,0.00,,,0.00,weatherlink.com 1.10,2013-02-16 13:36:00,
2013-02-16 08:51:00,33.4,30.0,29.92,WNW,294,2.0,5.0,88,0.00,,,0.00,weatherlink.com 1.10,2013-02-16 13:51:00,
2013-02-16 09:06:00,33.8,30.0,29.92,WNW,294,2.0,4.0,87,0.00,,,0.00,weatherlink.com 1.10,2013-02-16 14:06:00,
2013-02-16 09:21:00,34.1,31.0,29.92,WNW,289,2.0,4.0,87,0.00,,,0.00,weatherlink.com 1.10,2013-02-16 14:21:00,
2013-02-16 09:36:00,34.6,30.0,29.91,WNW,292,3.0,4.0,84,0.00,,,0.00,weatherlink.com 1.10,2013-02-16 14:36:00,
2013-02-16 09:52:00,35.0,31.0,29.91,WSW,256,0.0,4.0,84,0.00,,,0.00,weatherlink.com 1.10,2013-02-16 14:52:00,
2013-02-16 10:06:00,35.5,30.0,29.91,WNW,303,3.0,8.0,80,0.00,,,0.00,weatherlink.com 1.10,2013-02-16 15:06:00,
2013-02-16 10:21:00,35.6,29.0,29.91,WNW,285,2.0,6.0,77,0.00,,,0.00,weatherlink.com 1.10,2013-02-16 15:21:00,
2013-02-16 10:37:00,35.9,29.0,29.91,WNW,297,4.0,7.0,77,0.00,,,0.00,weatherlink.com 1.10,2013-02-16 15:37:00,
2013-02-16 10:51:00,36.0,29.0,29.91,WSW,240,2.0,6.0,77,0.00,,,0.00,weatherlink.com 1.10,2013-02-16 15:51:00,
2013-02-16 11:09:00,36.1,29.0,29.91,WNW,297,3.0,8.0,75,0.00,,,0.00,weatherlink.com 1.10,2013-02-16 16:09:00,
2013-02-16 11:22:00,35.7,29.0,29.91,West,273,3.0,7.0,75,0.00,,,0.00,weatherlink.com 1.10,2013-02-16 16:22:00,
2013-02-16 11:36:00,36.2,29.0,29.90,WNW,296,5.0,7.0,76,0.00,,,0.00,weatherlink.com 1.10,2013-02-16 16:36:00,
2013-02-16 11:51:00,36.6,30.0,29.89,WSW,254,5.0,6.0,76,0.00,,,0.00,weatherlink.com 1.10,2013-02-16 16:51:00,
2013-02-16 12:07:00,37.0,29.0,29.89,East,79,2.0,7.0,73,0.00,,,0.00,weatherlink.com 1.10,2013-02-16 17:07:00,
2013-02-16 12:22:00,36.6,28.0,29.87,ENE,71,0.0,6.0,70,0.00,,,0.00,weatherlink.com 1.10,2013-02-16 17:22:00,
2013-02-16 12:37:00,36.2,27.0,29.86,West,265,0.0,6.0,70,0.00,,,0.00,weatherlink.com 1.10,2013-02-16 17:37:00,
2013-02-16 12:52:00,36.7,27.0,29.85,NW,312,1.0,8.0,68,0.00,,,0.00,weatherlink.com 1.10,2013-02-16 17:52:00,
2013-02-16 13:07:00,36.3,26.0,29.86,WNW,300,2.0,6.0,67,0.00,,,0.00,weatherlink.com 1.10,2013-02-16 18:07:00,
2013-02-16 13:22:00,36.7,26.0,29.86,ESE,107,1.0,3.0,66,0.00,,,0.00,weatherlink.com 1.10,2013-02-16 18:22:00,
2013-02-16 13:37:00,36.2,25.0,29.85,West,263,4.0,8.0,65,0.00,,,0.00,weatherlink.com 1.10,2013-02-16 18:37:00,
2013-02-16 13:52:00,35.9,25.0,29.85,WNW,296,8.0,9.0,64,0.00,,,0.00,weatherlink.com 1.10,2013-02-16 18:52:00,
2013-02-16 14:07:00,36.0,24.0,29.84,West,273,4.0,7.0,62,0.00,,,0.00,weatherlink.com 1.10,2013-02-16 19:07:00,
2013-02-16 14:22:00,36.2,23.0,29.84,West,280,7.0,11.0,59,0.00,,,0.00,weatherlink.com 1.10,2013-02-16 19:22:00,
2013-02-16 14:59:00,36.1,22.0,29.84,WNW,292,4.0,10.0,57,0.00,,,0.00,weatherlink.com 1.10,2013-02-16 19:59:00,
2013-02-16 15:07:00,36.0,22.0,29.84,WNW,292,4.0,10.0,56,0.00,,,0.00,weatherlink.com 1.10,2013-02-16 20:07:00,
2013-02-16 15:22:00,35.7,20.0,29.83,WNW,282,4.0,7.0,54,0.00,,,0.00,weatherlink.com 1.10,2013-02-16 20:22:00,
2013-02-16 15:37:00,35.6,22.0,29.83,WNW,297,2.0,7.0,57,0.00,,,0.00,weatherlink.com 1.10,2013-02-16 20:37:00,
2013-02-16 15:52:00,35.3,21.0,29.83,WNW,293,4.0,10.0,56,0.00,,,0.00,weatherlink.com 1.10,2013-02-16 20:52:00,
2013-02-16 16:07:00,34.9,20.0,29.84,NW,313,3.0,9.0,56,0.00,,,0.00,weatherlink.com 1.10,2013-02-16 21:07:00,
2013-02-16 16:22:00,34.6,20.0,29.84,West,265,3.0,8.0,55,0.00,,,0.00,weatherlink.com 1.10,2013-02-16 21:22:00,
2013-02-16 16:37:00,34.4,20.0,29.84,West,265,8.0,8.0,56,0.00,,,0.00,weatherlink.com 1.10,2013-02-16 21:37:00,
2013-02-16 16:52:00,34.1,19.0,29.84,West,281,5.0,8.0,55,0.00,,,0.00,weatherlink.com 1.10,2013-02-16 21:52:00,
2013-02-16 17:07:00,33.8,19.0,29.84,WNW,286,2.0,8.0,55,0.00,,,0.00,weatherlink.com 1.10,2013-02-16 22:07:00,
2013-02-16 17:22:00,33.4,19.0,29.84,WNW,283,4.0,5.0,56,0.00,,,0.00,weatherlink.com 1.10,2013-02-16 22:22:00,
2013-02-16 17:37:00,33.1,18.0,29.84,WNW,292,2.0,4.0,55,0.00,,,0.00,weatherlink.com 1.10,2013-02-16 22:37:00,
2013-02-16 17:51:00,32.8,19.0,29.84,WNW,295,2.0,4.0,57,0.00,,,0.00,weatherlink.com 1.10,2013-02-16 22:51:00,
2013-02-16 18:07:00,32.5,19.0,29.85,West,280,0.0,4.0,58,0.00,,,0.00,weatherlink.com 1.10,2013-02-16 23:07:00,
2013-02-16 18:21:00,32.3,17.0,29.85,NW,307,3.0,9.0,54,0.00,,,0.00,weatherlink.com 1.10,2013-02-16 23:21:00,
2013-02-16 18:36:00,32.2,17.0,29.85,WNW,302,2.0,12.0,53,0.00,,,0.00,weatherlink.com 1.10,2013-02-16 23:36:00,
2013-02-16 18:51:00,31.9,17.0,29.86,WNW,296,4.0,14.0,54,0.00,,,0.00,weatherlink.com 1.10,2013-02-16 23:51:00,
2013-02-16 19:07:00,31.7,16.0,29.86,NW,306,3.0,10.0,52,0.00,,,0.00,weatherlink.com 1.10,2013-02-17 00:07:00,
2013-02-16 19:21:00,31.5,16.0,29.85,West,281,4.0,12.0,52,0.00,,,0.00,weatherlink.com 1.10,2013-02-17 00:21:00,
2013-02-16 19:36:00,31.3,16.0,29.85,West,279,7.0,10.0,53,0.00,,,0.00,weatherlink.com 1.10,2013-02-17 00:36:00,
2013-02-16 19:51:00,31.0,16.0,29.85,WNW,297,4.0,8.0,54,0.00,,,0.00,weatherlink.com 1.10,2013-02-17 00:51:00,
2013-02-16 20:07:00,30.9,16.0,29.85,WNW,301,3.0,8.0,54,0.00,,,0.00,weatherlink.com 1.10,2013-02-17 01:07:00,
2013-02-16 20:21:00,30.7,16.0,29.85,WNW,288,6.0,8.0,55,0.00,,,0.00,weatherlink.com 1.10,2013-02-17 01:21:00,
2013-02-16 20:36:00,30.7,17.0,29.85,WNW,284,5.0,12.0,56,0.00,,,0.00,weatherlink.com 1.10,2013-02-17 01:36:00,
2013-02-16 20:52:00,30.5,17.0,29.84,WNW,290,10.0,14.0,58,0.00,,,0.00,weatherlink.com 1.10,2013-02-17 01:52:00,
2013-02-16 21:07:00,30.3,17.0,29.84,WNW,294,3.0,15.0,59,0.00,,,0.00,weatherlink.com 1.10,2013-02-17 02:07:00,
2013-02-16 21:22:00,30.1,17.0,29.84,WNW,302,7.0,16.0,58,0.00,,,0.00,weatherlink.com 1.10,2013-02-17 02:22:00,
2013-02-16 21:37:00,29.8,17.0,29.84,WNW,294,4.0,13.0,59,0.00,,,0.00,weatherlink.com 1.10,2013-02-17 02:37:00,
2013-02-16 21:52:00,29.3,17.0,29.84,WNW,294,6.0,11.0,60,0.00,,,0.00,weatherlink.com 1.10,2013-02-17 02:52:00,
2013-02-16 22:07:00,29.0,17.0,29.84,WNW,296,7.0,10.0,60,0.00,,,0.00,weatherlink.com 1.10,2013-02-17 03:07:00,
2013-02-16 22:22:00,28.8,17.0,29.83,WNW,284,11.0,13.0,61,0.00,,,0.00,weatherlink.com 1.10,2013-02-17 03:22:00,
2013-02-16 22:37:00,28.7,17.0,29.83,NW,306,6.0,12.0,61,0.00,,,0.00,weatherlink.com 1.10,2013-02-17 03:37:00,
2013-02-16 22:52:00,28.5,17.0,29.83,WNW,298,6.0,14.0,63,0.00,,,0.00,weatherlink.com 1.10,2013-02-17 03:52:00,
2013-02-16 23:07:00,28.3,17.0,29.82,WNW,291,5.0,14.0,64,0.00,,,0.00,weatherlink.com 1.10,2013-02-17 04:07:00,
2013-02-16 23:22:00,28.1,18.0,29.82,WNW,300,6.0,11.0,65,0.00,,,0.00,weatherlink.com 1.10,2013-02-17 04:22:00,
2013-02-16 23:37:00,27.7,18.0,29.82,WNW,294,4.0,8.0,66,0.00,,,0.00,weatherlink.com 1.10,2013-02-17 04:37:00,
2013-02-16 23:52:00,27.4,18.0,29.82,West,275,5.0,10.0,67,0.00,,,0.00,weatherlink.com 1.10,2013-02-17 04:52:00,